Location: Skalnate Pleso
(49.1889°N, 20.2450°E)
Time: 17:24:44
(UTC+01:00)

FENGYUN 3A - Pass Details

Date: 19 November 2019
Orbit: 823 x 836 km, 98.4° (Epoch: 11 December)

Event Time Altitude Azimuth Distance (km) Brightness Sun altitude
Rises 05:51:12 0° 10° (N) 3,394 6.8 -10.3°
Reaches altitude 10° 05:53:37 10° 6° (N) 2,454 6.0 -9.9°
Maximum altitude 05:58:52 52° 292° (WNW) 1,030 3.8 -9.1°
Drops below altitude 10° 06:04:04 10° 217° (SW) 2,429 5.9 -8.3°
Sets 06:06:28 0° 212° (SSW) 3,357 6.7 -8.0°
